[[{"header":{"parameterUnit":"m.s-1","parameterCategory":2,"la1":30.2991,"la2":30.254,"lo1":-89.0895,"lo2":-89.0444,"dy":0.0017,"dx":0.0017,"nx":28,"ny":28,"refTime":"2025-08-08T21:00:00:Z","depth":"0","parameterNumber":2,"parameterNumberName":"U-component_of_CURRENTS"},"data":[0,0,0,0,0,0,0,0,0,0,0,0,0,0,0,0,0,0,0,0,0,0,0,0,0,0,0,0,0,0,0,0,0,0,0,0,0,0,0,0,0,0,0,0,0,0,0,0,0,0,0,0,0,0,0,0,0,0,-0.2737,-0.2738,0,-0.2812,-0.2813,-0.2813,-0.2733,-0.273,-0.2727,-0.2725,-0.2686,-0.2688,-0.2689,0,0,0,0,0,0,0,0,0,0,0,0,0,-0.254,-0.2544,-0.2737,-0.2738,-0.2739,-0.2812,-0.2813,-0.2814,-0.2733,-0.273,-0.2727,-0.2723,-0.2686,-0.2688,-0.2689,0,0,0,0,0,0,0,0,0,0,0,0,0,-0.2618,-0.2545,-0.2736,-0.2711,-0.271,-0.2812,-0.2813,-0.2814,-0.2734,-0.273,-0.2726,-0.2722,-0.2685,-0.2687,-0.269,-0.2785,0,0,-0.2697,-0.2698,0,0,0,0,0,0,0,0,-0.2613,-0.2624,-0.2713,-0.2713,-0.2712,-0.2763,-0.273,-0.28,-0.2735,-0.272,-0.2725,-0.272,-0.2707,-0.2707,-0.2726,-0.2784,-0.2782,-0.2697,-0.2698,-0.2699,-0.27,0,0,0,0,0,0,0,-0.2608,-0.2621,-0.2762,-0.2715,-0.2714,-0.2702,-0.2708,-0.2743,-0.273,-0.2721,-0.2717,-0.2733,-0.2704,-0.2724,-0.2724,-0.2781,-0.2697,-0.2699,-0.27,-0.2701,-0.2872,-0.2875,0,0,0,0,0,0,-0.2612,-0.2617,-0.276,-0.2765,-0.2656,-0.2709,-0.2716,-0.2747,-0.2732,-0.2728,-0.2737,-0.2729,-0.2723,-0.2722,-0.2723,-0.2797,-0.2699,-0.2701,-0.2703,-0.2869,-0.2873,-0.2876,0,0,0,0,0,0,-0.2608,-0.2625,-0.2757,-0.2694,-0.271,-0.2717,-0.2753,-0.2751,-0.2765,-0.2746,-0.2738,-0.2752,-0.2719,-0.2719,-0.2769,-0.2796,-0.2702,-0.2704,-0.2865,-0.287,-0.2874,-0.2971,0,0,0,0,0,0,-0.2602,-0.2623,-0.2648,-0.2695,-0.2714,-0.2832,-0.2757,-0.2755,-0.2784,-0.2774,-0.2758,-0.275,-0.2716,-0.2766,-0.2771,-0.2797,-0.2706,-0.2861,-0.2867,-0.2873,-0.2963,-0.2978,-0.2991,0,0,0,0,0,-0.2595,-0.2658,-0.265,-0.2667,-0.2749,-0.2836,-0.2846,-0.2832,-0.2788,-0.2823,-0.2808,-0.275,-0.2805,-0.2772,-0.2777,-0.2804,-0.2858,-0.2866,-0.2872,-0.2957,-0.2975,-0.299,0,0,0,0,0,0,-0.2602,-0.2658,-0.2649,-0.2729,-0.2781,-0.2824,-0.2858,-0.2851,-0.2872,-0.285,-0.281,-0.2806,-0.2852,-0.2837,-0.2801,-0.2874,-0.2816,-0.2825,-0.2879,-0.2896,-0.2909,-0.2899,-0.2708,0,0,0,0,0,-0.2616,-0.266,-0.2722,-0.2783,-0.2813,-0.2837,-0.2868,-0.2867,-0.2893,-0.2895,-0.2887,-0.288,-0.2895,-0.2899,-0.2914,-0.2976,-0.2921,-0.2993,-0.3007,-0.3018,-0.3016,-0.2967,-0.2974,-0.29,-0.29,-0.2899,0,0,-0.2633,-0.2672,-0.2696,-0.2785,-0.2816,-0.2886,-0.2845,-0.2909,-0.2954,-0.2893,-0.2947,-0.2937,-0.2925,-0.2977,-0.2995,-0.2961,-0.3017,-0.3027,-0.3036,-0.3028,-0.2975,-0.2981,-0.2987,-0.2904,-0.2904,-0.2903,0,0,-0.2682,-0.273,-0.277,-0.2831,-0.2895,-0.2931,-0.2955,-0.3012,-0.3019,-0.3092,-0.3043,-0.3058,-0.3097,-0.3084,-0.3082,-0.3193,-0.3094,-0.3192,-0.3248,-0.3201,-0.3205,-0.3207,-0.316,-0.3158,-0.3194,-0.3194,-0.3194,0,-0.2693,-0.2755,-0.2801,-0.2867,-0.2918,-0.2955,-0.3021,-0.3069,-0.313,-0.3144,-0.3117,-0.3156,-0.3145,-0.3183,-0.321,-0.3219,-0.3169,-0.318,-0.3213,-0.3215,-0.3216,-0.3166,-0.3163,-0.32,-0.3199,-0.3198,-0.3198,0,-0.276,-0.2821,-0.2866,-0.2947,-0.3024,-0.3095,-0.3172,-0.3232,-0.3244,-0.3265,-0.331,-0.3304,-0.3307,-0.3317,-0.3295,-0.3312,-0.3267,-0.3234,-0.3158,-0.3228,-0.3173,-0.3167,-0.3207,-0.3206,-0.3204,-0.3203,0,0,-0.2735,-0.2875,-0.2883,-0.292,-0.3066,-0.3122,-0.3242,-0.3331,-0.3351,-0.3416,-0.3423,-0.3479,-0.3442,-0.344,-0.341,-0.338,-0.3354,-0.3313,-0.3308,-0.3244,-0.3238,-0.3204,-0.3193,-0.3309,-0.3308,-0.3308,-0.3199,0,-0.2754,-0.2856,-0.2942,-0.3049,-0.3111,-0.3215,-0.3306,-0.3396,-0.3441,-0.3465,-0.3479,-0.3474,-0.35,-0.346,-0.3458,-0.336,-0.3341,-0.3386,-0.3199,-0.3194,-0.3136,-0.3187,-0.3038,-0.2928,-0.3193,-0.3192,-0.3191,0,-0.2765,-0.2833,-0.293,-0.3061,-0.3095,-0.317,-0.3286,-0.3371,-0.3454,-0.3476,-0.3515,-0.35,-0.3504,-0.3474,-0.341,-0.3429,-0.3355,-0.3289,-0.3282,-0.3208,-0.315,-0.2901,-0.2906,-0.2886,-0.3181,-0.3182,-0.3182,0,-0.267,-0.2816,-0.2876,-0.2932,-0.31,-0.3148,-0.3229,-0.3349,-0.3384,-0.3447,-0.3437,-0.3481,-0.3429,-0.3395,-0.3332,-0.3339,-0.3217,-0.3199,-0.3117,-0.3112,-0.2929,-0.291,-0.2868,-0.3143,-0.3144,-0.3144,-0.3144,0,-0.2649,-0.2689,-0.2819,-0.2855,-0.2901,-0.3056,-0.3097,-0.3193,-0.3274,-0.3287,-0.3395,-0.338,-0.3394,-0.3351,-0.3311,-0.321,-0.3212,-0.313,-0.3084,-0.2964,-0.2951,-0.2878,-0.2902,-0.314,-0.3141,-0.3142,-0.3142,0,-0.2531,-0.2629,-0.2687,-0.2827,-0.2855,-0.2878,-0.2992,-0.3015,-0.3127,-0.3135,-0.3141,-0.3249,-0.3224,-0.3246,-0.3152,-0.3142,-0.3,-0.3021,-0.2894,-0.2838,-0.2757,-0.2792,-0.2686,-0.2615,-0.2902,-0.2901,-0.2899,0,-0.2478,-0.2496,-0.2604,-0.2611,-0.2662,-0.2715,-0.2747,-0.2901,-0.2931,-0.3048,-0.3024,-0.3049,-0.3053,-0.2981,-0.296,-0.2904,-0.2905,-0.2735,-0.2743,-0.2741,-0.2745,-0.2768,-0.2718,-0.2532,-0.2528,-0.2525,-0.2522,0,-0.2356,-0.2387,-0.2428,-0.2443,-0.2465,-0.2498,-0.2557,-0.2561,-0.2731,-0.2755,-0.2791,-0.2803,-0.2815,-0.2736,-0.2724,-0.2671,-0.2667,-0.2665,-0.2667,-0.2471,-0.2481,-0.2392,-0.2634,-0.2492,-0.2495,-0.2497,-0.2499,-0.25,-0.2225,-0.2212,-0.2254,-0.2253,-0.2273,-0.2269,-0.224,-0.2326,-0.2345,-0.2393,-0.2513,-0.252,-0.254,-0.2516,-0.248,-0.2379,-0.2454,-0.2302,-0.2347,-0.2373,-0.2307,-0.2513,-0.2331,-0.2333,-0.2335,-0.2336,-0.2338,0,-0.2061,-0.207,-0.2062,-0.2065,-0.2014,-0.2087,-0.21,-0.2059,-0.203,-0.2143,-0.2173,-0.223,-0.2161,-0.2208,-0.2152,-0.2079,-0.2027,-0.2041,-0.2015,-0.198,-0.2129,-0.2117,-0.1875,-0.1875,-0.1875,-0.1875,-0.1875,-0.1875,-0.1978,-0.1922,-0.1928,-0.1804,-0.1793,-0.1688,-0.1658,-0.1631,-0.1675,-0.17,-0.1794,-0.193,-0.1983,-0.2121,-0.2014,-0.1924,-0.189,-0.1825,-0.1895,-0.1996,-0.2024,-0.205,-0.2045,-0.1791,-0.1791,-0.1635,-0.1634,-0.1634]},{"header":{"parameterUnit":"m.s-1","parameterCategory":2,"la1":30.2991,"la2":30.254,"lo1":-89.0895,"lo2":-89.0444,"dy":0.0017,"dx":0.0017,"nx":28,"ny":28,"refTime":"2025-08-08T21:00:00:Z","depth":"0","parameterNumber":3,"parameterNumberName":"V-component_of_CURRENTS"},"data":[0,0,0,0,0,0,0,0,0,0,0,0,0,0,0,0,0,0,0,0,0,0,0,0,0,0,0,0,0,0,0,0,0,0,0,0,0,0,0,0,0,0,0,0,0,0,0,0,0,0,0,0,0,0,0,0,0,0,-0.0132,-0.0131,0,-0.0047,-0.0046,-0.0045,0.0015,0.0016,0.0016,0.0016,0.0141,0.0144,0.0147,0,0,0,0,0,0,0,0,0,0,0,0,0,-0.0164,-0.0164,-0.0132,-0.0131,-0.013,-0.0048,-0.0046,-0.0045,0.0015,0.0016,0.0016,0.0016,0.014,0.0143,0.0147,0,0,0,0,0,0,0,0,0,0,0,0,0,-0.012,-0.0164,-0.0132,-0.0092,-0.0088,-0.0048,-0.0046,-0.0044,0.0015,0.0016,0.0016,0.0017,0.0138,0.0143,0.0147,0.0167,0,0,0.0161,0.0163,0,0,0,0,0,0,0,0,-0.0123,-0.0119,-0.0099,-0.0095,-0.009,-0.0028,-0.0012,0.0027,0.0015,-0.0021,0.0016,0.0017,0.0086,0.0095,0.0113,0.0173,0.0178,0.0162,0.0164,0.0166,0.0168,0,0,0,0,0,0,0,-0.0126,-0.0121,-0.0096,-0.0098,-0.0092,-0.0052,-0.0046,-0.0004,0.0032,-0.0018,-0.0014,-0.0009,0.0089,0.0108,0.0116,0.018,0.0162,0.0166,0.0168,0.017,0.0282,0.0282,0,0,0,0,0,0,-0.0146,-0.0125,-0.0099,-0.0094,-0.0108,-0.0052,-0.0045,-0.0046,0.003,0.0042,-0.0009,-0.0006,0.01,0.0111,0.0121,0.0153,0.0166,0.0171,0.0173,0.0281,0.0282,0.0282,0,0,0,0,0,0,-0.0147,-0.0145,-0.0102,-0.0109,-0.0101,-0.0053,-0.0054,-0.0045,-0.0027,0.0036,0.0049,-0.0002,0.0101,0.0114,0.0159,0.0158,0.0173,0.0177,0.0281,0.0282,0.0282,0.0216,0,0,0,0,0,0,-0.0148,-0.0146,-0.0154,-0.0111,-0.0101,-0.0086,-0.0055,-0.0044,-0.0026,-0.0021,0.0047,0.0059,0.0102,0.0152,0.0164,0.0165,0.018,0.0281,0.0281,0.0282,0.0218,0.0214,0.0211,0,0,0,0,0,-0.015,-0.0166,-0.0155,-0.0151,-0.0114,-0.0086,-0.0078,-0.004,-0.0026,-0.0021,0.0028,0.0057,0.0163,0.0156,0.017,0.0172,0.0281,0.0281,0.0282,0.0219,0.0215,0.0211,0,0,0,0,0,0,-0.019,-0.0161,-0.0147,-0.0155,-0.0126,-0.0077,-0.0074,-0.0047,-0.0005,-0.0002,0.0061,0.0077,0.0117,0.0153,0.0144,0.0206,0.0226,0.0229,0.0174,0.017,0.0167,0.0151,0.0184,0,0,0,0,0,-0.0203,-0.0206,-0.0168,-0.0177,-0.0166,-0.0121,-0.0106,-0.0081,-0.004,-0.0021,0.0029,0.0082,0.013,0.0155,0.0202,0.0235,0.0274,0.0246,0.0242,0.0239,0.0236,0.0296,0.0298,0.0284,0.0284,0.0284,0,0,-0.0223,-0.0208,-0.021,-0.0185,-0.0161,-0.0152,-0.0111,-0.0097,-0.0081,-0.0014,0.0021,0.007,0.0136,0.0175,0.0195,0.0205,0.0263,0.0239,0.0236,0.0235,0.0297,0.0298,0.03,0.0284,0.0284,0.0284,0,0,-0.0267,-0.0251,-0.0267,-0.0244,-0.0216,-0.0183,-0.0183,-0.0135,-0.0105,-0.0067,-0.0014,0.0034,0.0105,0.0153,0.0186,0.0191,0.0241,0.0205,0.0175,0.0234,0.0235,0.0237,0.0281,0.0288,0.0203,0.0203,0.0203,0,-0.0295,-0.0309,-0.0267,-0.0272,-0.0263,-0.0202,-0.0214,-0.017,-0.0111,-0.0088,-0.0066,0.0045,0.0095,0.0152,0.0154,0.0182,0.022,0.0183,0.0228,0.0231,0.0234,0.0279,0.0287,0.02,0.02,0.0201,0.0201,0,-0.0343,-0.0354,-0.0362,-0.0346,-0.0326,-0.0328,-0.0267,-0.0236,-0.0193,-0.0147,-0.0083,-0.0005,0.0058,0.0084,0.0122,0.0169,0.019,0.0214,0.0234,0.0231,0.0279,0.0288,0.0195,0.0197,0.0198,0.0198,0,0,-0.0413,-0.0402,-0.0405,-0.0417,-0.0369,-0.0362,-0.0327,-0.0281,-0.0261,-0.0184,-0.015,-0.0059,-0.0014,0.0027,0.0086,0.0141,0.0192,0.018,0.0184,0.0214,0.0315,0.037,0.0386,0.0225,0.0227,0.0228,0.0336,0,-0.0469,-0.051,-0.0475,-0.0504,-0.0522,-0.045,-0.0425,-0.0368,-0.0302,-0.0247,-0.0148,-0.0093,-0.0034,-0.0007,0.0058,0.0164,0.0215,0.016,0.0322,0.0326,0.0369,0.0398,0.043,0.0534,0.0346,0.0347,0.0349,0,-0.0525,-0.0549,-0.0595,-0.0595,-0.0594,-0.0588,-0.054,-0.0508,-0.0402,-0.0349,-0.0263,-0.0179,-0.0078,-0.0034,0.0143,0.0106,0.0197,0.0279,0.0286,0.0368,0.04,0.051,0.0558,0.0719,0.0363,0.0362,0.0361,0,-0.0605,-0.0629,-0.0675,-0.0674,-0.0655,-0.0653,-0.0632,-0.0545,-0.0518,-0.041,-0.0373,-0.0236,-0.0169,-0.0025,0.0157,0.0148,0.0354,0.0361,0.0496,0.05,0.0576,0.0585,0.0793,0.0473,0.0473,0.0473,0.0473,0,-0.0678,-0.0713,-0.0719,-0.0745,-0.0788,-0.0739,-0.0748,-0.0695,-0.0617,-0.0583,-0.0438,-0.0372,-0.0162,-0.0009,0.0145,0.0364,0.0349,0.0501,0.0541,0.0554,0.0559,0.0741,0.0788,0.0477,0.0476,0.0475,0.0475,0,-0.0751,-0.0755,-0.0811,-0.0823,-0.0829,-0.0857,-0.0836,-0.0829,-0.0743,-0.069,-0.0659,-0.0471,-0.0259,-0.0035,0.0208,0.0345,0.0649,0.062,0.0618,0.0656,0.0919,0.0959,0.1188,0.1274,0.0778,0.078,0.0782,0,-0.079,-0.0829,-0.088,-0.0915,-0.0924,-0.0952,-0.0963,-0.0901,-0.0884,-0.074,-0.0719,-0.0507,-0.0329,0.0062,0.0347,0.0642,0.0752,0.0822,0.0811,0.0955,0.103,0.1056,0.1112,0.0881,0.0883,0.0885,0.0887,0,-0.0861,-0.0876,-0.092,-0.1003,-0.1039,-0.1075,-0.1083,-0.1093,-0.1001,-0.0922,-0.0778,-0.0622,-0.0226,0.0142,0.0529,0.0704,0.0939,0.0871,0.1034,0.1144,0.1174,0.1268,0.0773,0.0905,0.0903,0.0901,0.0901,0.09,-0.0898,-0.095,-0.1008,-0.1078,-0.1127,-0.1173,-0.1195,-0.1175,-0.1133,-0.0992,-0.0838,-0.0559,-0.0034,0.0532,0.0735,0.1161,0.1105,0.1275,0.1315,0.1332,0.1417,0.0956,0.1124,0.1124,0.1124,0.1123,0.1123,0,-0.0938,-0.0995,-0.1075,-0.1155,-0.1215,-0.122,-0.125,-0.1233,-0.1178,-0.0999,-0.0813,-0.0223,0.0297,0.0774,0.1374,0.1595,0.1631,0.17,0.1749,0.1788,0.1406,0.1414,0.1637,0.1637,0.1637,0.1637,0.1637,0.1636,-0.0959,-0.1041,-0.1087,-0.1199,-0.1253,-0.13,-0.1312,-0.1265,-0.1141,-0.0825,-0.0489,-0.0213,0.0472,0.1423,0.1966,0.2013,0.2179,0.2163,0.2254,0.1993,0.1956,0.1921,0.1944,0.2275,0.2276,0.2627,0.2631,0.2634]}],[{"header":{"parameterUnit":"m.s-1","parameterCategory":2,"la1":30.2991,"la2":30.254,"lo1":-89.0895,"lo2":-89.0444,"dy":0.0017,"dx":0.0017,"nx":28,"ny":28,"refTime":"2025-08-08T21:00:00:Z","depth":"2","parameterNumber":2,"parameterNumberName":"U-component_of_CURRENTS"},"data":[0,0,0,0,0,0,0,0,0,0,0,0,0,0,0,0,0,0,0,0,0,0,0,0,0,0,0,0,0,0,0,0,0,0,0,0,0,0,0,0,0,0,0,0,0,0,0,0,0,0,0,0,0,0,0,0,0,0,-0.2379,-0.238,0,-0.2421,-0.2421,-0.2422,-0.2369,-0.2367,-0.2365,-0.2364,-0.2347,-0.2348,-0.2349,0,0,0,0,0,0,0,0,0,0,0,0,0,-0.2237,-0.224,-0.2379,-0.238,-0.2381,-0.2421,-0.2421,-0.2422,-0.2369,-0.2367,-0.2365,-0.2363,-0.2347,-0.2348,-0.2349,0,0,0,0,0,0,0,0,0,0,0,0,0,-0.2288,-0.2241,-0.2379,-0.2362,-0.2361,-0.2421,-0.2421,-0.2422,-0.2369,-0.2367,-0.2365,-0.2362,-0.2346,-0.2348,-0.235,-0.2408,0,0,-0.2354,-0.2355,0,0,0,0,0,0,0,0,-0.2285,-0.2293,-0.2363,-0.2363,-0.2362,-0.239,-0.2365,-0.2415,-0.237,-0.2363,-0.2364,-0.2361,-0.236,-0.2361,-0.237,-0.2408,-0.2407,-0.2355,-0.2356,-0.2356,-0.2357,0,0,0,0,0,0,0,-0.2282,-0.229,-0.2392,-0.2365,-0.2364,-0.2347,-0.2351,-0.2375,-0.2371,-0.2363,-0.236,-0.2371,-0.2359,-0.2368,-0.2369,-0.2407,-0.2355,-0.2356,-0.2357,-0.2358,-0.2484,-0.2486,0,0,0,0,0,0,-0.2288,-0.2288,-0.2391,-0.2394,-0.2321,-0.2352,-0.2356,-0.2381,-0.2372,-0.237,-0.2373,-0.2369,-0.2367,-0.2367,-0.2368,-0.243,-0.2356,-0.2358,-0.2359,-0.2481,-0.2484,-0.2487,0,0,0,0,0,0,-0.2285,-0.2297,-0.2389,-0.2343,-0.2354,-0.2357,-0.2385,-0.2383,-0.2393,-0.2381,-0.2376,-0.2384,-0.2365,-0.2366,-0.24,-0.2429,-0.2359,-0.236,-0.2478,-0.2482,-0.2485,-0.2559,0,0,0,0,0,0,-0.2281,-0.2296,-0.2317,-0.2344,-0.2357,-0.2429,-0.2388,-0.2386,-0.2405,-0.2399,-0.239,-0.2385,-0.2363,-0.2398,-0.2402,-0.243,-0.2361,-0.2475,-0.248,-0.2484,-0.2553,-0.2564,-0.2574,0,0,0,0,0,-0.2276,-0.2322,-0.2318,-0.2331,-0.2386,-0.2431,-0.2436,-0.2426,-0.2408,-0.2423,-0.2421,-0.2385,-0.2428,-0.2402,-0.2405,-0.2435,-0.2473,-0.2479,-0.2484,-0.2549,-0.2562,-0.2574,0,0,0,0,0,0,-0.2281,-0.2322,-0.2318,-0.2377,-0.2401,-0.2423,-0.2445,-0.2441,-0.2454,-0.2446,-0.2424,-0.2422,-0.2461,-0.245,-0.2421,-0.2486,-0.2443,-0.2449,-0.2491,-0.2504,-0.2514,-0.2529,-0.2363,0,0,0,0,0,-0.2293,-0.2328,-0.2363,-0.2407,-0.2425,-0.2438,-0.2455,-0.2452,-0.2468,-0.247,-0.2469,-0.2472,-0.2491,-0.2496,-0.251,-0.2554,-0.252,-0.2575,-0.2585,-0.2594,-0.2611,-0.2575,-0.2582,-0.2504,-0.2504,-0.2504,0,0,-0.2306,-0.2335,-0.2354,-0.2409,-0.2427,-0.2467,-0.2441,-0.2478,-0.251,-0.247,-0.2516,-0.2514,-0.2514,-0.2556,-0.2572,-0.2545,-0.2601,-0.2601,-0.2608,-0.2621,-0.2581,-0.2588,-0.2595,-0.2508,-0.2507,-0.2507,0,0,-0.2342,-0.2379,-0.241,-0.2442,-0.2479,-0.2496,-0.2511,-0.2544,-0.2555,-0.2607,-0.2583,-0.2604,-0.2637,-0.2638,-0.2643,-0.2727,-0.266,-0.2727,-0.2786,-0.2751,-0.2756,-0.2761,-0.273,-0.273,-0.2727,-0.2727,-0.2727,0,-0.2349,-0.2399,-0.2427,-0.2468,-0.2498,-0.2514,-0.2554,-0.2588,-0.2625,-0.265,-0.2629,-0.2687,-0.2679,-0.2729,-0.2752,-0.2749,-0.2714,-0.2733,-0.2761,-0.2765,-0.2768,-0.2735,-0.2734,-0.2731,-0.2731,-0.273,-0.273,0,-0.2397,-0.2443,-0.2473,-0.2526,-0.2567,-0.2609,-0.2657,-0.27,-0.2718,-0.2743,-0.2803,-0.2802,-0.2825,-0.2832,-0.2819,-0.285,-0.2814,-0.2777,-0.2721,-0.2779,-0.2742,-0.274,-0.2737,-0.2736,-0.2734,-0.2733,0,0,-0.238,-0.2483,-0.2487,-0.2516,-0.2598,-0.2629,-0.2714,-0.2783,-0.2814,-0.287,-0.2904,-0.2965,-0.2952,-0.2959,-0.294,-0.2924,-0.2912,-0.2865,-0.2861,-0.282,-0.2831,-0.2775,-0.2767,-0.2864,-0.2864,-0.2865,-0.2796,0,-0.2395,-0.2471,-0.2526,-0.2597,-0.2639,-0.2703,-0.2771,-0.2839,-0.2882,-0.2921,-0.296,-0.298,-0.3004,-0.2986,-0.2992,-0.292,-0.2912,-0.2935,-0.2794,-0.2791,-0.2721,-0.2765,-0.2546,-0.2464,-0.2794,-0.2793,-0.2793,0,-0.2399,-0.2454,-0.2524,-0.2621,-0.2644,-0.2692,-0.278,-0.2842,-0.2927,-0.2957,-0.3016,-0.3021,-0.3052,-0.3021,-0.2994,-0.3,-0.2939,-0.2889,-0.2883,-0.2806,-0.2732,-0.2461,-0.2448,-0.279,-0.279,-0.279,-0.279,0,-0.2333,-0.2442,-0.2493,-0.2529,-0.2648,-0.269,-0.2748,-0.2845,-0.2884,-0.2957,-0.2966,-0.3029,-0.3009,-0.2987,-0.2941,-0.2943,-0.2868,-0.284,-0.275,-0.2745,-0.2522,-0.2497,-0.2812,-0.2812,-0.2812,-0.2812,-0.2813,0,-0.2314,-0.2348,-0.2462,-0.2488,-0.2533,-0.264,-0.2684,-0.2757,-0.2835,-0.2861,-0.2959,-0.2964,-0.299,-0.2967,-0.2932,-0.2849,-0.2866,-0.2776,-0.2728,-0.2545,-0.2524,-0.2777,-0.2774,-0.281,-0.281,-0.2811,-0.2811,0,-0.2218,-0.2304,-0.2354,-0.2471,-0.2499,-0.2522,-0.262,-0.2647,-0.2748,-0.2772,-0.2788,-0.2886,-0.2871,-0.2894,-0.2824,-0.2805,-0.2735,-0.2696,-0.2496,-0.2428,-0.2639,-0.2641,-0.2588,-0.2586,-0.2583,-0.2582,-0.258,0,-0.2173,-0.2192,-0.2292,-0.2304,-0.2349,-0.2405,-0.2434,-0.2568,-0.2597,-0.2714,-0.2702,-0.274,-0.273,-0.2671,-0.2632,-0.2572,-0.2656,-0.2342,-0.2325,-0.266,-0.2618,-0.2623,-0.2628,-0.205,-0.2044,-0.204,-0.2036,0,-0.2064,-0.2098,-0.2133,-0.2162,-0.2191,-0.2227,-0.2287,-0.2301,-0.2447,-0.2476,-0.2507,-0.251,-0.251,-0.2372,-0.2343,-0.2281,-0.2346,-0.2247,-0.2606,-0.2164,-0.2153,-0.2113,-0.2134,-0.1995,-0.1999,-0.2002,-0.2004,-0.2006,-0.195,-0.1939,-0.1983,-0.1992,-0.2021,-0.2029,-0.201,-0.2089,-0.2109,-0.2143,-0.2248,-0.2202,-0.2218,-0.2071,-0.1986,-0.1941,-0.2099,-0.1999,-0.2012,-0.2031,-0.2004,-0.1992,-0.1798,-0.1801,-0.1804,-0.1806,-0.1808,0,-0.1801,-0.181,-0.1809,-0.1823,-0.1787,-0.1864,-0.1886,-0.1851,-0.1819,-0.1886,-0.1893,-0.173,-0.1654,-0.1694,-0.156,-0.1549,-0.1522,-0.1484,-0.1439,-0.1479,-0.1516,-0.1463,-0.1114,-0.1112,-0.1111,-0.1109,0,0,-0.1725,-0.1675,-0.168,-0.1582,-0.1584,-0.1503,-0.1482,-0.1457,-0.1472,-0.142,-0.1411,-0.1551,-0.1616,-0.1361,-0.1308,-0.1189,-0.1317,-0.1127,-0.1677,-0.166,-0.1694,-0.18,-0.1763,0,0,0,0,0]},{"header":{"parameterUnit":"m.s-1","parameterCategory":2,"la1":30.2991,"la2":30.254,"lo1":-89.0895,"lo2":-89.0444,"dy":0.0017,"dx":0.0017,"nx":28,"ny":28,"refTime":"2025-08-08T21:00:00:Z","depth":"2","parameterNumber":3,"parameterNumberName":"V-component_of_CURRENTS"},"data":[0,0,0,0,0,0,0,0,0,0,0,0,0,0,0,0,0,0,0,0,0,0,0,0,0,0,0,0,0,0,0,0,0,0,0,0,0,0,0,0,0,0,0,0,0,0,0,0,0,0,0,0,0,0,0,0,0,0,-0.0103,-0.0102,0,-0.003,-0.0029,-0.0028,0.0029,0.003,0.003,0.003,0.0145,0.0147,0.015,0,0,0,0,0,0,0,0,0,0,0,0,0,-0.0128,-0.0128,-0.0103,-0.0102,-0.0101,-0.003,-0.0029,-0.0028,0.0029,0.003,0.003,0.0031,0.0144,0.0147,0.015,0,0,0,0,0,0,0,0,0,0,0,0,0,-0.009,-0.0128,-0.0103,-0.0066,-0.0062,-0.0031,-0.0029,-0.0028,0.0029,0.003,0.003,0.0031,0.0143,0.0147,0.0151,0.0164,0,0,0.0163,0.0165,0,0,0,0,0,0,0,0,-0.0093,-0.0089,-0.0072,-0.0068,-0.0064,-0.0011,0.0004,0.0038,0.0029,-0.0003,0.003,0.0031,0.0095,0.0103,0.0118,0.017,0.0175,0.0163,0.0166,0.0168,0.0169,0,0,0,0,0,0,0,-0.0095,-0.0092,-0.0072,-0.0071,-0.0066,-0.0031,-0.0025,0.0011,0.0044,-0.0,0.0003,0.0008,0.0098,0.0114,0.0121,0.0176,0.0163,0.0167,0.0169,0.0171,0.0259,0.0259,0,0,0,0,0,0,-0.0113,-0.0095,-0.0074,-0.007,-0.0079,-0.0031,-0.0025,-0.0027,0.0043,0.0053,0.0007,0.001,0.0106,0.0116,0.0125,0.015,0.0168,0.0171,0.0174,0.0259,0.0259,0.0259,0,0,0,0,0,0,-0.0113,-0.0112,-0.0077,-0.0082,-0.0075,-0.0032,-0.0034,-0.0026,-0.001,0.0048,0.006,0.0013,0.0107,0.0119,0.0156,0.0155,0.0173,0.0177,0.0259,0.0259,0.0259,0.0197,0,0,0,0,0,0,-0.0115,-0.0113,-0.012,-0.0083,-0.0076,-0.0066,-0.0035,-0.0025,-0.0009,-0.0005,0.0057,0.0068,0.0109,0.015,0.016,0.0161,0.018,0.0259,0.0259,0.0259,0.0199,0.0195,0.0191,0,0,0,0,0,-0.0116,-0.0133,-0.0121,-0.0119,-0.0088,-0.0067,-0.006,-0.0025,-0.001,-0.0008,0.0036,0.0066,0.0156,0.0153,0.0165,0.0167,0.0259,0.0259,0.0259,0.0201,0.0196,0.0191,0,0,0,0,0,0,-0.0153,-0.0128,-0.0114,-0.0124,-0.0101,-0.0058,-0.0057,-0.0032,0.0003,0.0007,0.0066,0.008,0.0112,0.0146,0.0141,0.0192,0.0212,0.0215,0.0164,0.016,0.0156,0.0146,0.0183,0,0,0,0,0,-0.0165,-0.017,-0.0137,-0.0147,-0.0138,-0.0099,-0.0087,-0.0065,-0.0029,-0.0013,0.0033,0.0079,0.0121,0.0144,0.0184,0.021,0.0251,0.0219,0.0215,0.0211,0.0212,0.0276,0.0277,0.0258,0.0258,0.0258,0,0,-0.0185,-0.0171,-0.0175,-0.0155,-0.0134,-0.013,-0.009,-0.008,-0.0069,-0.0006,0.0021,0.0066,0.0124,0.0156,0.0173,0.0184,0.0236,0.0211,0.0208,0.0211,0.0276,0.0278,0.0279,0.0258,0.0258,0.0258,0,0,-0.0227,-0.0212,-0.023,-0.0211,-0.0188,-0.016,-0.0162,-0.0121,-0.0095,-0.0066,-0.0016,0.0027,0.0086,0.0131,0.0161,0.0158,0.0211,0.0169,0.0144,0.0204,0.0207,0.0209,0.0252,0.0258,0.0168,0.0168,0.0168,0,-0.0253,-0.0268,-0.0232,-0.0238,-0.0232,-0.0179,-0.0193,-0.0157,-0.0108,-0.0085,-0.0068,0.0031,0.0076,0.0128,0.0127,0.0149,0.0188,0.0155,0.0199,0.0203,0.0206,0.0249,0.0258,0.0165,0.0165,0.0165,0.0166,0,-0.0301,-0.0312,-0.0321,-0.0311,-0.0295,-0.0301,-0.0249,-0.0225,-0.0189,-0.0146,-0.0089,-0.002,0.0038,0.006,0.0094,0.0141,0.0161,0.0185,0.0209,0.0204,0.025,0.026,0.016,0.0162,0.0162,0.0163,0,0,-0.0366,-0.0359,-0.0362,-0.0373,-0.0336,-0.0333,-0.0307,-0.0268,-0.0249,-0.0184,-0.015,-0.0072,-0.0026,0.001,0.0065,0.0121,0.0173,0.0158,0.0162,0.0195,0.0299,0.0331,0.0345,0.0208,0.021,0.0211,0.0316,0,-0.0419,-0.046,-0.043,-0.0461,-0.0479,-0.0417,-0.0398,-0.0349,-0.0291,-0.024,-0.0148,-0.0097,-0.0046,-0.0019,0.0045,0.0147,0.0198,0.0142,0.0304,0.0308,0.0334,0.0357,0.0317,0.0409,0.0326,0.0328,0.0329,0,-0.0473,-0.0496,-0.0542,-0.0543,-0.0542,-0.0542,-0.05,-0.0475,-0.0376,-0.0327,-0.0246,-0.0168,-0.0071,-0.0034,0.0138,0.0101,0.0189,0.0267,0.0274,0.0334,0.0359,0.0405,0.0431,0.0346,0.0344,0.0343,0.0342,0,-0.0545,-0.057,-0.0615,-0.0615,-0.0602,-0.0601,-0.0585,-0.0506,-0.048,-0.0379,-0.0342,-0.0212,-0.0148,-0.001,0.0157,0.0149,0.0349,0.0357,0.0466,0.0469,0.0483,0.0484,0.0469,0.0469,0.0469,0.0469,0.0468,0,-0.0613,-0.0647,-0.0655,-0.0681,-0.0722,-0.0678,-0.0686,-0.064,-0.0566,-0.0531,-0.0398,-0.0334,-0.0137,0.0007,0.015,0.0348,0.0346,0.0471,0.0507,0.0458,0.0456,0.0441,0.0436,0.0473,0.0472,0.0471,0.047,0,-0.0681,-0.0687,-0.0741,-0.0754,-0.0761,-0.0788,-0.0769,-0.0762,-0.068,-0.0627,-0.0598,-0.0419,-0.0223,-0.0018,0.0214,0.0334,0.0519,0.0583,0.0506,0.0532,0.0593,0.0584,0.071,0.0712,0.0714,0.0716,0.0717,0,-0.0718,-0.0755,-0.0806,-0.0841,-0.0851,-0.0879,-0.089,-0.0831,-0.0811,-0.0672,-0.0648,-0.0451,-0.029,0.0067,0.0314,0.0577,0.0576,0.0675,0.0654,0.06,0.0622,0.061,0.0598,0.0641,0.0641,0.0642,0.0642,0,-0.0785,-0.08,-0.0843,-0.0926,-0.0961,-0.0994,-0.1001,-0.1007,-0.0916,-0.0838,-0.0698,-0.0556,-0.0207,0.0086,0.0423,0.0568,0.0633,0.0693,0.068,0.0584,0.0544,0.0562,0.0551,0.0646,0.0646,0.0646,0.0646,0.0645,-0.082,-0.087,-0.0928,-0.0997,-0.1045,-0.1088,-0.1108,-0.1081,-0.1036,-0.0896,-0.0757,-0.0512,-0.0227,0.0257,0.0492,0.0705,0.0706,0.075,0.0745,0.074,0.0712,0.0677,0.0798,0.0798,0.0799,0.0799,0.0799,0,-0.0859,-0.0914,-0.0992,-0.1071,-0.1129,-0.1136,-0.1158,-0.114,-0.1079,-0.091,-0.0738,-0.0418,-0.0072,0.0224,0.0567,0.0772,0.0746,0.0793,0.0716,0.0712,0.0708,0.0674,0.0753,0.0753,0.0753,0.0754,0,0,-0.0881,-0.096,-0.1003,-0.1112,-0.1167,-0.1213,-0.1222,-0.117,-0.1055,-0.0885,-0.0693,-0.0424,-0.0059,0.0169,0.0428,0.0602,0.0599,0.0611,0.0629,0.0504,0.0497,0.0666,0.0608,0,0,0,0,0]}],[{"header":{"parameterUnit":"m.s-1","parameterCategory":2,"la1":30.2991,"la2":30.254,"lo1":-89.0895,"lo2":-89.0444,"dy":0.0017,"dx":0.0017,"nx":28,"ny":28,"refTime":"2025-08-08T21:00:00:Z","depth":"4","parameterNumber":2,"parameterNumberName":"U-component_of_CURRENTS"},"data":[0,0,0,0,0,0,0,0,0,0,0,0,0,0,0,0,0,0,0,0,0,0,0,0,0,0,0,0,0,0,0,0,0,0,0,0,0,0,0,0,0,0,0,0,0,0,0,0,0,0,0,0,0,0,0,0,0,0,-0.1681,-0.1681,0,-0.1728,-0.1728,-0.1728,-0.175,-0.175,-0.175,-0.1751,-0.1808,-0.1809,-0.181,0,0,0,0,0,0,0,0,0,0,0,0,0,-0.1574,-0.1576,-0.1681,-0.1681,-0.1682,-0.1728,-0.1728,-0.1728,-0.175,-0.175,-0.175,-0.1751,-0.1807,-0.1809,-0.181,0,0,0,0,0,0,0,0,0,0,0,0,0,-0.1618,-0.1576,-0.168,-0.17,-0.1703,-0.1728,-0.1728,-0.1729,-0.175,-0.175,-0.175,-0.1751,-0.1807,-0.1808,-0.181,-0.1817,0,0,-0.1817,-0.1817,0,0,0,0,0,0,0,0,-0.1616,-0.1622,-0.1697,-0.1699,-0.1702,-0.1736,-0.1712,-0.176,-0.175,-0.1729,-0.1751,-0.1751,-0.1786,-0.179,-0.1794,-0.182,-0.1822,-0.1817,-0.1818,-0.1819,-0.1819,0,0,0,0,0,0,0,-0.1612,-0.162,-0.1697,-0.1698,-0.1701,-0.1695,-0.1702,-0.172,-0.1753,-0.1731,-0.1733,-0.1743,-0.1787,-0.1792,-0.1796,-0.1823,-0.1817,-0.1818,-0.182,-0.1821,-0.192,-0.1921,0,0,0,0,0,0,-0.1614,-0.1617,-0.1695,-0.1698,-0.1661,-0.1697,-0.1704,-0.1722,-0.1753,-0.1759,-0.1742,-0.1744,-0.1788,-0.1793,-0.1798,-0.1852,-0.1819,-0.1821,-0.1822,-0.1919,-0.192,-0.1922,0,0,0,0,0,0,-0.1612,-0.1621,-0.1693,-0.166,-0.1669,-0.1699,-0.1719,-0.1723,-0.1756,-0.1762,-0.1768,-0.1774,-0.1789,-0.1795,-0.1832,-0.1853,-0.1822,-0.1823,-0.1917,-0.1919,-0.1921,-0.1933,0,0,0,0,0,0,-0.1608,-0.162,-0.1647,-0.1661,-0.1671,-0.1719,-0.1719,-0.1724,-0.1761,-0.1764,-0.1791,-0.1795,-0.1789,-0.1829,-0.1834,-0.1855,-0.1825,-0.1915,-0.1918,-0.192,-0.193,-0.1935,-0.1939,0,0,0,0,0,-0.1604,-0.1639,-0.1649,-0.1659,-0.1704,-0.172,-0.1725,-0.1745,-0.1763,-0.1776,-0.1797,-0.1795,-0.185,-0.1832,-0.1837,-0.1859,-0.1914,-0.1917,-0.192,-0.1929,-0.1934,-0.1939,0,0,0,0,0,0,-0.1613,-0.1645,-0.1656,-0.1701,-0.1715,-0.1725,-0.1754,-0.1764,-0.1792,-0.1808,-0.1811,-0.1816,-0.1853,-0.1863,-0.1842,-0.1899,-0.1883,-0.1888,-0.1888,-0.1893,-0.1897,-0.191,-0.1827,0,0,0,0,0,-0.1626,-0.1661,-0.1678,-0.1716,-0.173,-0.1748,-0.1766,-0.1776,-0.1796,-0.1811,-0.1826,-0.1851,-0.1867,-0.1886,-0.1899,-0.1934,-0.1942,-0.1955,-0.1959,-0.1963,-0.1979,-0.2009,-0.2017,-0.1933,-0.1933,-0.1932,0,0,-0.1641,-0.1665,-0.1686,-0.1721,-0.174,-0.1758,-0.176,-0.1795,-0.181,-0.1813,-0.1853,-0.1865,-0.188,-0.1908,-0.1928,-0.1922,-0.1988,-0.1967,-0.1969,-0.1984,-0.2013,-0.2022,-0.2029,-0.1935,-0.1934,-0.1934,0,0,-0.1672,-0.171,-0.1741,-0.1757,-0.179,-0.1792,-0.1809,-0.1832,-0.1847,-0.1875,-0.1883,-0.1913,-0.194,-0.1952,-0.1961,-0.2004,-0.2005,-0.2015,-0.2051,-0.2079,-0.2086,-0.2092,-0.2095,-0.2101,-0.2022,-0.2022,-0.2022,0,-0.1688,-0.173,-0.1751,-0.1779,-0.1801,-0.1811,-0.1838,-0.1848,-0.1877,-0.1897,-0.1892,-0.1949,-0.1958,-0.1999,-0.2011,-0.2013,-0.2025,-0.2024,-0.2083,-0.209,-0.2096,-0.2097,-0.2104,-0.2023,-0.2022,-0.2022,-0.2022,0,-0.1721,-0.1768,-0.1791,-0.1826,-0.1846,-0.1875,-0.1886,-0.1911,-0.1928,-0.1935,-0.1982,-0.1993,-0.2031,-0.2035,-0.2035,-0.2091,-0.2082,-0.2077,-0.2065,-0.2105,-0.2104,-0.2111,-0.2024,-0.2024,-0.2023,-0.2023,0,0,-0.171,-0.1799,-0.1807,-0.1841,-0.1877,-0.1894,-0.1926,-0.1952,-0.199,-0.2002,-0.2051,-0.2069,-0.2087,-0.2101,-0.211,-0.2138,-0.2177,-0.2135,-0.2136,-0.2128,-0.2231,-0.2066,-0.2057,-0.2186,-0.2188,-0.2189,-0.2205,0,-0.1727,-0.1794,-0.1831,-0.1888,-0.1919,-0.195,-0.1982,-0.2009,-0.2029,-0.2075,-0.2088,-0.2135,-0.2107,-0.2144,-0.2161,-0.2185,-0.2201,-0.2173,-0.2203,-0.2204,-0.2044,-0.2061,-0.2195,-0.221,-0.2212,-0.2213,-0.2214,0,-0.1725,-0.1777,-0.1844,-0.1933,-0.1953,-0.1989,-0.2052,-0.2082,-0.2134,-0.2161,-0.2197,-0.2211,-0.2257,-0.2231,-0.2268,-0.2255,-0.225,-0.2251,-0.2252,-0.2102,-0.2052,-0.2169,-0.2226,-0.2225,-0.2224,-0.2223,-0.2223,0,-0.1675,-0.1778,-0.1838,-0.1865,-0.196,-0.2008,-0.2056,-0.2113,-0.2144,-0.2227,-0.2261,-0.2304,-0.2336,-0.2346,-0.232,-0.2317,-0.2345,-0.2338,-0.2177,-0.2165,-0.2305,-0.2298,-0.2365,-0.2365,-0.2365,-0.2365,-0.2365,0,-0.1647,-0.1697,-0.1834,-0.1861,-0.1933,-0.2014,-0.2084,-0.2136,-0.2219,-0.2243,-0.231,-0.2322,-0.2371,-0.2372,-0.2353,-0.2264,-0.2364,-0.2184,-0.216,-0.2307,-0.23,-0.2308,-0.2301,-0.2365,-0.2365,-0.2365,-0.2365,0,-0.1558,-0.1655,-0.1727,-0.1863,-0.1907,-0.1954,-0.2076,-0.2114,-0.2222,-0.2259,-0.229,-0.2354,-0.2348,-0.2354,-0.2369,-0.2281,-0.2239,-0.2183,-0.2326,-0.231,-0.2036,-0.2031,-0.202,-0.2014,-0.2009,-0.2005,-0.2002,0,-0.1514,-0.1547,-0.1696,-0.1734,-0.18,-0.1895,-0.1943,-0.208,-0.2109,-0.2233,-0.2226,-0.228,-0.2289,-0.2161,-0.2204,-0.215,-0.2117,-0.209,-0.2073,-0.2024,-0.2003,-0.2005,-0.2005,-0.1994,-0.1993,-0.1992,-0.1991,0,-0.1412,-0.1482,-0.1537,-0.1619,-0.1691,-0.1756,-0.1845,-0.186,-0.1995,-0.2118,-0.2088,-0.2076,-0.2061,-0.2041,-0.2005,-0.1968,-0.2111,-0.204,-0.205,-0.2034,-0.1993,-0.1977,-0.1984,-0.1974,-0.1976,-0.1978,-0.1979,0,-0.1327,-0.1337,-0.142,-0.1472,-0.1554,-0.1582,-0.166,-0.1698,-0.1755,-0.1901,-0.188,-0.1938,-0.2022,-0.1945,-0.1913,-0.1861,-0.1839,-0.1783,-0.1806,-0.1825,-0.1752,-0.1672,-0.1531,0,0,0,0,0,-0.1233,-0.1227,-0.1264,-0.1322,-0.1396,-0.1445,-0.1565,-0.165,-0.1792,-0.1709,-0.1792,-0.1761,-0.1724,-0.1764,-0.1667,-0.1836,-0.1852,-0.1718,-0.1803,-0.1882,-0.1901,-0.1831,0,0,0,0,0,0,-0.117,-0.1197,-0.1209,-0.1177,-0.1185,-0.1257,-0.1327,-0.1435,-0.1407,-0.155,-0.153,-0.1641,-0.1624,-0.173,-0.162,-0.1632,-0.1647,-0.1768,-0.1763,-0.1871,-0.1888,-0.1904,-0.1839,0,0,0,0,0]},{"header":{"parameterUnit":"m.s-1","parameterCategory":2,"la1":30.2991,"la2":30.254,"lo1":-89.0895,"lo2":-89.0444,"dy":0.0017,"dx":0.0017,"nx":28,"ny":28,"refTime":"2025-08-08T21:00:00:Z","depth":"4","parameterNumber":3,"parameterNumberName":"V-component_of_CURRENTS"},"data":[0,0,0,0,0,0,0,0,0,0,0,0,0,0,0,0,0,0,0,0,0,0,0,0,0,0,0,0,0,0,0,0,0,0,0,0,0,0,0,0,0,0,0,0,0,0,0,0,0,0,0,0,0,0,0,0,0,0,-0.0075,-0.0074,0,-0.0027,-0.0027,-0.0026,0.0019,0.0019,0.0019,0.002,0.011,0.0112,0.0114,0,0,0,0,0,0,0,0,0,0,0,0,0,-0.0086,-0.0087,-0.0075,-0.0074,-0.0074,-0.0028,-0.0027,-0.0026,0.0019,0.0019,0.002,0.002,0.011,0.0112,0.0115,0,0,0,0,0,0,0,0,0,0,0,0,0,-0.0063,-0.0087,-0.0075,-0.0047,-0.0044,-0.0028,-0.0027,-0.0026,0.0018,0.0019,0.002,0.002,0.0109,0.0112,0.0115,0.0121,0,0,0.0124,0.0125,0,0,0,0,0,0,0,0,-0.0065,-0.0063,-0.0052,-0.0049,-0.0046,-0.0011,0.0002,0.0025,0.0018,-0.0004,0.002,0.0021,0.0072,0.0078,0.0087,0.0125,0.0129,0.0124,0.0126,0.0128,0.0128,0,0,0,0,0,0,0,-0.0066,-0.0064,-0.0055,-0.0051,-0.0048,-0.0023,-0.002,0.0007,0.0032,-0.0002,0.0001,0.0004,0.0075,0.0084,0.009,0.013,0.0124,0.0127,0.0129,0.013,0.0184,0.0184,0,0,0,0,0,0,-0.0078,-0.0066,-0.0056,-0.0053,-0.0056,-0.0024,-0.002,-0.0022,0.0031,0.0039,0.0003,0.0006,0.0079,0.0086,0.0093,0.0104,0.0127,0.013,0.0132,0.0184,0.0184,0.0183,0,0,0,0,0,0,-0.0079,-0.0078,-0.0058,-0.0059,-0.0055,-0.0025,-0.0027,-0.0021,-0.0011,0.0034,0.0043,0.0006,0.008,0.0089,0.0112,0.0108,0.0132,0.0134,0.0185,0.0184,0.0184,0.0126,0,0,0,0,0,0,-0.0079,-0.0079,-0.0086,-0.006,-0.0056,-0.0055,-0.0028,-0.0021,-0.0011,-0.0008,0.004,0.0049,0.0081,0.0107,0.0115,0.0113,0.0137,0.0185,0.0185,0.0184,0.0128,0.0124,0.0119,0,0,0,0,0,-0.008,-0.0095,-0.0086,-0.0085,-0.0066,-0.0056,-0.0051,-0.0026,-0.0012,-0.0014,0.0019,0.0047,0.0109,0.0109,0.0119,0.0117,0.0186,0.0185,0.0184,0.013,0.0125,0.012,0,0,0,0,0,0,-0.0107,-0.0091,-0.0081,-0.0091,-0.0078,-0.0049,-0.005,-0.0032,-0.0008,-0.0005,0.0042,0.0053,0.0071,0.01,0.01,0.013,0.0152,0.0153,0.0108,0.0103,0.0099,0.0093,0.0139,0,0,0,0,0,-0.0117,-0.0123,-0.0102,-0.0112,-0.0107,-0.008,-0.0073,-0.0057,-0.0033,-0.0022,0.0013,0.0047,0.0074,0.0093,0.0119,0.0136,0.0178,0.0141,0.0137,0.0133,0.0134,0.0199,0.0201,0.0181,0.0181,0.0181,0,0,-0.0132,-0.0124,-0.0129,-0.0118,-0.0105,-0.0106,-0.0074,-0.0071,-0.0068,-0.0016,-0.0002,0.003,0.0073,0.0091,0.0103,0.0117,0.0158,0.0132,0.0128,0.0132,0.0198,0.0201,0.0202,0.018,0.018,0.018,0,0,-0.0167,-0.0158,-0.0173,-0.0163,-0.015,-0.0132,-0.0134,-0.0108,-0.0092,-0.0079,-0.0039,-0.001,0.0029,0.0064,0.0085,0.0072,0.0128,0.0079,0.0058,0.012,0.0123,0.0125,0.0169,0.0176,0.0081,0.0081,0.0081,0,-0.0187,-0.0202,-0.0177,-0.0186,-0.0184,-0.0148,-0.0162,-0.0141,-0.0111,-0.0095,-0.0084,-0.0017,0.0017,0.0052,0.0047,0.0063,0.0103,0.0074,0.0115,0.0119,0.0123,0.0167,0.0175,0.0078,0.0079,0.0079,0.0079,0,-0.0227,-0.024,-0.0248,-0.0247,-0.0239,-0.0248,-0.0217,-0.0204,-0.0182,-0.0153,-0.0119,-0.0069,-0.0027,-0.0013,0.0013,0.0055,0.0075,0.0098,0.0129,0.0121,0.0168,0.0178,0.0074,0.0075,0.0076,0.0077,0,0,-0.0273,-0.0278,-0.0282,-0.0294,-0.0273,-0.0276,-0.0266,-0.0245,-0.0233,-0.0195,-0.0171,-0.0123,-0.0087,-0.0061,-0.0018,0.0038,0.0092,0.0076,0.008,0.0118,0.0223,0.0194,0.0203,0.0129,0.0131,0.0132,0.0239,0,-0.0316,-0.0356,-0.0337,-0.037,-0.0387,-0.0347,-0.0341,-0.0312,-0.0273,-0.0237,-0.0174,-0.0138,-0.0108,-0.0085,-0.0028,0.0068,0.0118,0.006,0.0225,0.023,0.0205,0.0213,0.0137,0.0247,0.0249,0.0251,0.0252,0,-0.0357,-0.0381,-0.0426,-0.0435,-0.0437,-0.0446,-0.0422,-0.041,-0.0342,-0.0306,-0.025,-0.0191,-0.0113,-0.0085,0.0069,0.0033,0.0116,0.019,0.0197,0.02,0.022,0.0261,0.0271,0.027,0.0269,0.0267,0.0266,0,-0.0407,-0.0439,-0.0481,-0.0485,-0.0487,-0.0495,-0.049,-0.0436,-0.0422,-0.0344,-0.0313,-0.0214,-0.0161,-0.0038,0.0102,0.0095,0.028,0.0291,0.0341,0.034,0.036,0.0356,0.0398,0.0398,0.0398,0.0397,0.0397,0,-0.0453,-0.0487,-0.0513,-0.0537,-0.0582,-0.0555,-0.0571,-0.054,-0.0487,-0.0461,-0.0358,-0.0307,-0.0142,-0.0019,0.0103,0.0251,0.0282,0.034,0.037,0.033,0.0322,0.0366,0.0361,0.0401,0.04,0.04,0.0399,0,-0.0494,-0.0512,-0.0566,-0.0595,-0.061,-0.064,-0.0643,-0.0641,-0.0578,-0.0536,-0.0512,-0.0367,-0.0203,-0.0038,0.0171,0.0243,0.0395,0.0438,0.0375,0.04,0.0411,0.0401,0.0501,0.0501,0.0501,0.0501,0.0501,0,-0.0516,-0.055,-0.0619,-0.0659,-0.0679,-0.0717,-0.0737,-0.0699,-0.0682,-0.0567,-0.0545,-0.0385,-0.0274,0.0005,0.0168,0.0394,0.0417,0.0481,0.0447,0.0404,0.0424,0.0414,0.0405,0.0501,0.0501,0.0501,0.0501,0,-0.0554,-0.0583,-0.0627,-0.0718,-0.0765,-0.0806,-0.0824,-0.0822,-0.0752,-0.0698,-0.055,-0.0393,-0.0212,-0.0003,0.0172,0.0332,0.0434,0.0481,0.0482,0.0451,0.0405,0.0423,0.0414,0.05,0.05,0.05,0.05,0,-0.0576,-0.062,-0.0686,-0.0757,-0.0826,-0.0866,-0.0875,-0.0833,-0.0803,-0.0665,-0.0619,-0.0397,-0.0265,-0.0034,0.0132,0.0281,0.0307,0.0337,0.0345,0.0347,0.0263,0.018,0.0235,0,0,0,0,0,-0.059,-0.064,-0.0717,-0.0795,-0.0864,-0.0897,-0.0914,-0.0901,-0.084,-0.0743,-0.0673,-0.0493,-0.0223,-0.0097,0.0048,0.01,0.0307,0.0269,0.0338,0.05,0.05,0.0424,0,0,0,0,0,0,-0.06,-0.0674,-0.0716,-0.0805,-0.0862,-0.0924,-0.0936,-0.0899,-0.083,-0.0744,-0.0593,-0.0482,-0.0219,-0.0301,0.0047,0.0093,0.0148,0.0409,0.0411,0.05,0.05,0.05,0.0422,0,0,0,0,0]}]]